Volver al catálogo

STARLINK-30985

ActivoComunicacionesVLEO
NORAD 58493·PAYLOAD·🇺🇸 United States

Lanzado Dec 3, 2023 desde Cape Canaveral Space Force Station

Loading…

Próximos Pases (próximas 24 horas)

TLE

ActualizadoSource: CelesTrak SupGP

Época: Sep 14, 2026, 21:30 UTC

1 58493C 23186W   26257.89631944  .00051561  00000+0  18675-2 0  2578
2 58493  43.0039  74.8824 0001776 271.0332 157.4752 15.27553475    18

Sigue STARLINK-30985 en tiempo real con AllMySat

Download on the App Store